Satellite-Ground Cal/Val Site Overpasses Predictions

Prediction of Satellite NPP Overpassing Cal/Val Site: Antarctic Dome C

Ground Cal/Val Site Location: Latitude: -75.10, Longitude: 123.35; Satellite-Ground Site NADIR distance within 100 km.

Table of predicted overpasses for the next 14.0 days since TLE Epoch: 7/4/2014
Interval Starting Time Ending Time Minimum Distance Time Minimum Distance (km)
1 07/05/2014 15:08:15 07/05/2014 15:08:36 07/05/2014 15:08:25 66.34
2 07/06/2014 14:49:25 07/06/2014 14:49:51 07/06/2014 14:49:38 42.86
3 07/07/2014 07:51:07 07/07/2014 07:51:28 07/07/2014 07:51:18 65.95
4 07/08/2014 07:32:17 07/08/2014 07:32:44 07/08/2014 07:32:31 41.92
5 07/11/2014 14:55:49 07/11/2014 14:56:18 07/11/2014 14:56:03 7.08
6 07/13/2014 07:38:41 07/13/2014 07:39:10 07/13/2014 07:38:56 5.53
7 07/16/2014 15:02:15 07/16/2014 15:02:43 07/16/2014 15:02:29 29.47
8 07/17/2014 14:43:32 07/17/2014 14:43:50 07/17/2014 14:43:41 77.55


NCC Satellite Cal/Val Overpasses Prediction Service
